Regional Weather Roundup
Issued by NWS

Home | Current Version | Previous Version | Graphics & Text | Print | Product List | Glossary On
Versions: 1 2 3 4 5 6 7 8 9 10 11 12 13 14 15 16 17 18 19 20 21 22 23 24 25 26 27 28 29 30 31 32 33 34 35 36 37 38 39 40 41 42 43 44 45 46 47 48 49 50
000
ASUS44 KMEG 281700
RWRTN

TENNESSEE HOURLY STATE WEATHER ROUNDUP
NATIONAL WEATHER SERVICE MEMPHIS TN
1100 AM CDT MON JUL 28 2014

TNZ002-004-019-021-049-052-054-088>092-281700-
WEST TENNESSEE

CITY           SKY/WX    TMP DP  RH WIND       PRES   REMARKS
MEMPHIS INTL   MOSUNNY   82  62  50 N12       30.09S
NWS MEMPHIS      N/A     79 N/A N/A MISG        N/A
JACKSON        SUNNY     79  62  56 VRB6      30.07F
DYERSBURG      SUNNY     77  57  50 NW9       30.09S
UNION CITY     SUNNY     75  63  64 NW9       30.07S
PARIS          MOSUNNY   75  62  64 NW7       30.07F
LEXINGTON      SUNNY     77  61  57 N6        30.06R
SAVANNAH       SUNNY     78  63  60 N9        30.06S
$$

TNZ008-025-027-028-033-062-065-066-281700-
NORTH MIDDLE TENNESSEE

CITY           SKY/WX    TMP DP  RH WIND       PRES   REMARKS
NASHVILLE      MOSUNNY   78  61  55 W8        30.03R
DICKSON        MOSUNNY   73  61  64 NW13      30.05R
PORTLAND       MOSUNNY   73  61  64 VRB7      30.02R
CLARKSVILLE    PTSUNNY   77  60  55 NW14      30.04R
LEBANON        MOSUNNY   76  61  59 NW13      30.01R
SMYRNA         MOSUNNY   83  62  48 N13       30.03S
MURFREESBORO   MOSUNNY   77  60  55 W7        30.02S
COOKEVILLE     MOSUNNY   77  63  61 N8        30.02S
LIVINGSTON       N/A     73  59  61 N10       30.03R
CROSSVILLE     MOSUNNY   76  58  53 W15G21    30.05R
$$

TNZ061-075-076-078-094-096-097-281700-
SOUTH MIDDLE TENNESSEE

CITY           SKY/WX    TMP DP  RH WIND       PRES   REMARKS
LEWISBURG      SUNNY     78  62  57 NW7       30.03S
FAYETTEVILLE   SUNNY     77  61  57 N10       30.03S
TULLAHOMA      SUNNY     75  61  60 NW10      30.04S
WINCHESTER     SUNNY     77  63  61 NW8       30.03S
MCMINNVILLE    MOSUNNY   75  64  69 W6        30.03S
COLUMBIA       SUNNY     79  63  57 VRB7      30.03S
SHELBYVILLE    SUNNY     79  63  57 NW8       30.04S
$$

TNZ017-018-042-046-047-281700-
NORTHEAST TENNESSEE

CITY           SKY/WX    TMP DP  RH WIND       PRES   REMARKS
TRI CITIES     MOSUNNY   76  59  55 W13G23    29.96R
ELIZABETHTON   MOSUNNY   73  61  64 NW9         N/A
$$

TNZ012-013-036-069-073-074-281700-
CENTRAL EAST TENNESSEE

CITY           SKY/WX    TMP DP  RH WIND       PRES   REMARKS
KNOXVILLE      MOSUNNY   77  61  57 NW8       29.98R
OAK RIDGE      PTSUNNY   79  60  52 MISG      29.99R
GATLINBURG     MOSUNNY   79  63  57 W10       29.97S
MORRISTOWN     SUNNY     75  61  60 W10       29.99R
$$

TNZ083-085-099-281700-
SOUTHEAST TENNESSEE

CITY           SKY/WX    TMP DP  RH WIND       PRES   REMARKS
CHATTANOOGA    MOSUNNY   82  61  48 W10       29.99R
$$

SKY/WX REPORTED AS FAIR MEANS FEW OR NO CLOUDS BELOW
12 THOUSAND FEET.






USA.gov is the U.S. government's official web portal to all federal, state and local government web resources and services.